Location: London
(51.5074°N, 0.1278°W)
Time: 07:38:26
(UTC+01:00)

ISS - Visible Passes

Search period start: 18 September 2021 00:00
Search period end: 28 September 2021 00:00
Orbit: 419 x 423 km, 51.6° (Epoch: 17 September)

Date Brightness Start Highest point End Pass type
(mag) Time Alt. Az. Time Alt. Az. Time Alt. Az.
18 Sep -2.0 19:52:16 10° S 19:54:33 17° SE 19:56:29 12° ESE visible
18 Sep -2.3 21:27:36 10° WSW 21:29:29 30° SW 21:29:29 30° SW visible
19 Sep -3.4 20:40:51 10° SW 20:44:05 45° SSE 20:44:44 39° ESE visible
19 Sep -0.7 22:17:27 10° W 22:17:45 12° W 22:17:45 12° W visible
20 Sep -2.9 19:54:12 10° SW 19:57:17 34° SSE 19:59:50 13° E visible
20 Sep -2.6 21:30:33 10° W 21:32:51 40° WSW 21:32:51 40° WSW visible
21 Sep -3.9 20:43:40 10° WSW 20:47:02 75° SSE 20:47:51 48° E visible
21 Sep -0.6 22:20:31 10° W 22:20:51 12° W 22:20:51 12° W visible
22 Sep -3.6 19:56:50 10° WSW 20:00:10 61° SSE 20:02:47 15° E visible
22 Sep -2.3 21:33:36 10° W 21:35:46 37° W 21:35:46 37° W visible
23 Sep -3.8 20:46:41 10° W 20:50:04 87° N 20:50:39 58° E visible
23 Sep -0.4 22:23:33 10° W 22:23:38 11° W 22:23:38 11° W visible
24 Sep -3.8 19:59:45 10° W 20:03:08 87° S 20:05:30 19° E visible
24 Sep -1.9 21:36:38 10° W 21:38:29 30° W 21:38:29 30° W visible
25 Sep -3.9 20:49:42 10° W 20:53:06 90° N 20:53:18 78° E visible
26 Sep -3.8 20:02:46 10° W 20:06:09 86° N 20:08:06 23° E visible
26 Sep -1.5 21:39:38 10° W 21:41:06 23° W 21:41:06 23° W visible
27 Sep -3.6 20:52:42 10° W 20:55:54 66° SW 20:55:54 66° SW visible
